SCP
0 0 0 0 0 0 0 0 0 0 0 0 0 0 -0 -0 0 0 0 0 0 0 0 0 0 0 0 0 0 0 0 0 0 0 0 0 1 0
0 0 0 0 0 0 0 0 0 0 0 0 0 0 0 0 0 0 0 0 0 0 0 0 0 0 0 0 0 0 0 0 0 0 0 0 0 0
0 0 0 0 0 0 0 0 0 0 0 0 0 0 0 0 0 0 0 0 0 0 0 0 0 0 0 0 0 0 0 0 0 0 0 0 0 0
0 0 0 0 0 0 0 0 0 0 0 0 0 0 0 0 0 0 0 0 0 0 0 0 0 0 0 0 0 0 0 0 0 0 0 0 0 0
0 0 0 0 0 0 0 0 0 0 0 0 0 0 0 0 0 0 0 0 0 0 0 0 0 0 0 0 0 0 0 0 0 0 -0 0 0 0
0 0 0 0 0 0 0 0 0 0 0 0 0 0 0 0 0 0 0 0 0 0 0 0 0 0 0 0 0 0 0 0 0 0 0 0 0 0
0 0 0 0 0 0 0 0 0 0 0 0 0 0 0 0 0 0 0 0 0 0 0 0 0 0 0 0 0 0 0 0 0 0 0 0 0 0
0 0 0 0 0 0 0 0 0 0 0 0 0 0 0 0 0 0 0 0 0 0 0 0 0 0 0 0 0 0 0 0 0 0 0 0 0 0
0 0 0 0 0 0 0 0 0 0 0 0 0 0 0 0 0 0 0 0 0 0 0 0 0 0 0 0 0 0 0 0 0 0 0 0 0 0
0 0 0 0 0 0 0 0 0 0 0 0 0 0 0 0 0 0 0 0 0 0 0 0 0 0 0 0 0 0 0 0 0 0 0 0 0 0
0 0 0 0 0 0 0 0 0 0 0 0 0 0 0 0 0 0 0 0 0 0 0 0 0 0 0 0 0 0 0 -0 0 0 0 0 0 0
0 0 0 0 0 0 0 0 0 0 0 0 0 0 0 0 0 0 0 0 0 0 0 0 0 0 0 0 0 0 0 0 0 0 0 0 0 0
0 0 0 0 0 0 0 0 0 0 0 0 0 0 0 0 0 0 0 0 0 0 0 0 0 0 0 0 0 0 0 0 0 0 0 0 0 0
0 0 0 0 0 0 0 0 0 0 0 0 0 0 0 0 0 0 0 0 0 0 0 0 0 0 0 0 0 0 0 0 0 0 0 0 0 0
0 0 0 0 0 0 0 0 0 0 0 0 0 0 0 0 0 0 0 0 0 0 0 0 0 0 0 0 0 0 0 0 0 0 0 0 0 0
0 0 0 0 0 0 0 0 0 0 0 0 0 0 0 0 0 0 0 0 0 0 0 0 -0 0 0 0 0 0 0 0 0 0 0 0 0 0
0 0 0 0 0 0 0 0 0 0 0 0 0 0 0 0 0 0 0 0 0 0 0 -0 0 0 0 0 0 0 0 0 0 0 0 0 0 0
0 0 0 0 0 0 0 0 0 0 0 0 0 0 0 0 0 0 0 0 0 0 0 -0 -0 0 0 0 0 0 0 0 0 0 0 0 0 0
0 0 0 0 0 0 0 0 0 0 0 0 0 0 0 0 0 0 0 0 0 0 0 0 -0 0 0 0 0 0 0 0 0 0 0 0 0 0
0 0 0 0 0 -0 0 0 0 0 0 0 0 0 0 0 0 0 0 0 0 0 0 0 0 0 0 0 0 0 0 0 0 0 0 0 -0 0
0 0 0 0 0 0 0 0 0 0 0 0 0 0 0 0 0 0 0 0 0 0 0 0 0 0 0 0 0 0 0 0 0 0 0 0 0 -0
0 0 0 0 0 0 0 0 0 0 0 0 0 0 0 0 0 0 0 0 0 0 0 0 0 0 0 0 0 0 0 0 0 -0 -0 -0 0 0
0 -0 0 -0 -0 -0 0 0 0 0 0 0 0 0 0 0 0 0 0 0 0 0 0 0 0 0 0 0 0 0 0 0 0 0 -0 -0 -0 -0
Wind_Speed_500mb
51 48 45 43 43 45 45 43 51 49 51 37 71 74 67 67 58 53 49 41 30 33 40 42 34 26 24 24 32 50 58 69 64 41 37 33 28 24
42 42 44 44 42 38 38 40 42 47 40 59 54 55 66 63 51 41 36 34 25 31 27 34 40 32 21 18 32 32 60 75 72 65 43 39 32 31
40 44 41 35 32 30 30 36 44 48 50 58 64 61 60 58 51 42 34 28 28 26 33 30 30 33 30 30 37 45 42 57 77 71 40 33 23 27
40 35 30 29 28 32 39 41 39 43 49 57 55 59 56 55 56 46 37 32 33 37 32 35 31 26 34 35 32 31 31 42 65 71 58 54 41 42
32 24 25 26 35 37 36 39 41 39 45 54 61 58 61 58 56 56 52 42 37 41 41 37 34 26 22 39 42 40 39 44 52 56 72 60 55 43
23 24 25 28 33 30 35 36 41 50 56 64 68 67 63 61 55 55 59 51 50 42 38 40 40 34 28 18 36 47 46 45 50 63 67 64 68 56
23 23 22 27 23 26 33 41 48 59 67 67 68 67 65 63 59 54 53 55 55 49 49 46 42 41 37 33 17 27 43 51 56 57 64 62 68 64
28 31 30 22 27 33 32 40 50 62 66 66 68 66 65 58 53 53 55 55 57 48 55 64 52 43 40 39 32 21 21 42 42 57 58 62 62 58
29 31 31 22 24 33 42 48 48 51 57 59 61 63 61 53 51 53 55 60 59 60 57 64 48 43 33 32 35 37 32 20 32 41 46 52 57 58
28 33 31 17 22 38 48 51 57 63 69 72 68 61 54 48 45 50 54 58 56 51 36 52 43 41 26 20 28 35 44 33 24 25 28 41 45 56
27 35 27 21 24 40 48 56 64 70 73 65 54 50 46 40 38 42 46 44 46 41 26 34 28 30 21 8 12 35 22 31 28 26 25 33 44 47
30 30 22 21 28 37 44 54 67 75 73 58 56 49 41 40 37 32 32 36 35 29 14 12 23 28 13 2 9 2 24 24 25 36 32 26 30 35
36 34 25 21 29 37 40 52 61 68 61 54 52 51 48 48 45 31 25 29 30 30 21 24 28 20 23 23 13 8 9 15 34 30 42 40 35 35
34 33 28 24 31 37 41 49 61 66 64 59 59 56 52 47 39 31 29 26 30 30 17 20 23 22 18 23 18 15 15 7 13 26 27 44 57 49
27 28 26 27 33 37 42 48 62 67 76 70 64 61 56 45 35 26 24 21 24 28 23 22 23 22 23 24 24 20 23 12 10 15 17 21 47 61
30 31 31 32 34 38 42 49 60 70 77 67 58 54 46 33 24 21 23 18 16 20 18 17 17 19 22 23 24 22 16 18 24 22 10 23 27 61
41 39 33 31 35 40 44 49 61 70 76 58 50 50 44 38 30 22 20 18 16 13 10 16 15 15 16 17 22 23 22 22 23 16 14 13 16 30
34 35 36 38 44 47 53 56 62 72 75 55 45 44 42 39 33 27 23 19 16 12 7 11 18 9 10 11 17 25 26 20 18 10 10 12 3 19
46 43 44 46 50 53 55 60 66 71 72 55 43 39 42 43 41 27 21 21 15 8 4 10 18 17 16 14 11 9 12 14 15 8 10 13 8 14
59 56 50 51 57 61 58 60 62 69 75 57 43 37 45 52 39 41 21 12 13 1 3 4 9 16 16 11 8 7 8 10 17 14 11 13 13 9
55 57 54 60 62 58 59 60 62 70 80 62 48 40 42 40 44 44 39 24 6 15 13 6 4 10 11 8 8 10 11 9 18 18 15 17 12 9
47 53 59 59 62 62 62 61 62 70 76 60 50 44 44 44 46 46 38 28 15 12 6 7 11 16 13 8 11 11 6 5 10 11 11 10 6 4
45 50 55 51 59 62 62 63 65 70 76 65 53 40 39 32 34 34 31 25 20 21 15 16 18 16 13 12 13 5 3 3 1 3 1 4 10 9
Wind_Direction_500mb
313 314 313 313 314 312 312 316 324 331 333 324 324 323 323 323 322 319 317 310 293 297 295 295 291 281 310 285 274 244 223 225 220 199 238 221 206 212
316 315 313 313 313 312 313 318 322 326 320 322 329 327 322 323 325 321 323 323 294 288 293 298 285 278 267 297 259 244 236 226 208 196 236 225 207 203
316 314 317 319 318 329 330 323 322 322 321 323 325 325 326 326 322 324 318 319 308 294 284 289 295 277 274 257 240 245 235 213 204 198 204 219 227 230
318 316 320 325 336 328 322 321 327 326 320 321 330 337 343 344 339 329 315 301 290 290 292 280 282 297 258 242 241 236 249 224 218 204 215 226 245 249
328 333 337 336 330 330 332 329 326 336 341 334 334 338 338 342 338 339 336 324 303 294 291 287 275 276 285 255 238 237 235 222 222 230 221 237 241 238
332 335 338 340 336 331 327 331 341 338 335 334 332 333 333 337 335 332 331 335 327 317 299 289 279 277 266 269 242 236 232 225 229 231 231 232 230 239
335 335 343 338 336 337 336 333 333 332 330 330 327 326 327 329 329 324 322 322 324 324 307 306 296 278 269 255 266 224 225 228 234 237 234 237 236 235
330 331 336 339 341 333 327 327 332 325 326 325 323 318 320 320 318 314 311 315 314 324 315 306 304 285 274 263 253 227 210 219 226 232 237 239 231 226
331 334 332 335 336 326 331 332 331 328 328 323 317 314 312 314 309 305 307 304 301 307 312 301 310 297 285 268 250 237 227 215 226 234 236 239 236 232
335 333 328 319 325 327 330 333 333 331 329 324 318 314 309 307 305 300 296 294 296 309 313 296 313 308 305 278 247 237 233 226 210 223 226 232 236 230
338 338 325 301 322 335 336 336 335 334 331 329 325 319 315 306 305 298 296 296 290 309 322 301 326 330 345 290 232 236 255 249 234 227 229 234 230 228
335 339 327 311 335 343 340 342 341 339 334 331 331 333 325 317 312 299 301 289 283 305 331 301 308 326 333 213 40 84 246 250 241 230 232 234 241 239
336 336 330 319 341 340 337 346 347 341 336 333 335 335 333 330 326 312 302 296 276 275 291 290 287 295 309 307 325 25 21 242 254 256 238 234 244 242
329 328 325 323 331 333 338 344 345 347 349 346 344 337 333 327 322 314 311 290 275 262 272 278 273 274 293 298 299 336 358 12 238 249 242 240 229 237
334 336 330 325 320 328 340 343 347 352 354 348 342 339 335 329 326 322 316 299 278 256 260 262 268 259 274 284 286 324 347 320 314 231 234 258 232 226
343 339 329 329 326 331 341 348 351 359 356 350 348 348 350 350 347 336 323 310 281 266 262 262 252 249 265 267 274 295 319 312 306 317 292 292 242 222
337 332 333 335 341 344 347 352 357 358 354 352 354 358 4 0 357 342 332 316 275 286 257 225 232 243 259 265 268 274 291 295 287 314 313 309 237 221
350 359 6 5 3 357 354 356 1 0 356 354 358 358 358 354 350 349 342 323 315 308 275 202 209 203 199 247 263 275 279 272 276 298 317 342 166 190
28 23 19 16 11 7 0 359 0 0 357 0 1 357 352 346 343 340 342 338 314 311 267 196 212 213 219 239 274 293 286 256 259 281 327 332 309 251
26 24 22 21 16 10 2 1 360 1 4 7 6 0 352 353 6 356 347 316 321 176 188 185 202 212 212 218 283 301 307 266 241 267 308 320 320 304
20 16 16 18 12 7 2 2 2 5 8 8 10 10 8 10 3 13 9 15 296 247 257 277 189 182 196 222 276 301 326 277 240 259 279 321 330 336
18 8 11 12 4 4 6 3 5 9 8 8 9 10 14 18 16 18 22 27 63 97 84 105 164 180 184 231 280 314 337 311 254 263 292 321 360 338
10 1 3 5 3 7 7 6 7 9 7 10 12 11 12 17 22 24 30 41 52 68 99 117 121 143 187 229 276 295 105 118 282 278 276 94 67 43
Wind_Speed_850mb
51 48 45 43 43 45 45 43 51 49 51 37 71 74 67 67 58 53 49 41 30 33 40 42 34 26 24 24 32 50 58 69 64 41 37 33 28 24
42 42 44 44 42 38 38 40 42 47 40 59 54 55 66 63 51 41 36 34 25 31 27 34 40 32 21 18 32 32 60 75 72 65 43 39 32 31
40 44 41 35 32 30 30 36 44 48 50 58 64 61 60 58 51 42 34 28 28 26 33 30 30 33 30 30 37 45 42 57 77 71 40 33 23 27
40 35 30 29 28 32 39 41 39 43 49 57 55 59 56 55 56 46 37 32 33 37 32 35 31 26 34 35 32 31 31 42 65 71 58 54 41 42
32 24 25 26 35 37 36 39 41 39 45 54 61 58 61 58 56 56 52 42 37 41 41 37 34 26 22 39 42 40 39 44 52 56 72 60 55 43
23 24 25 28 33 30 35 36 41 50 56 64 68 67 63 61 55 55 59 51 50 42 38 40 40 34 28 18 36 47 46 45 50 63 67 64 68 56
23 23 22 27 23 26 33 41 48 59 67 67 68 67 65 63 59 54 53 55 55 49 49 46 42 41 37 33 17 27 43 51 56 57 64 62 68 64
28 31 30 22 27 33 32 40 50 62 66 66 68 66 65 58 53 53 55 55 57 48 55 64 52 43 40 39 32 21 21 42 42 57 58 62 62 58
29 31 31 22 24 33 42 48 48 51 57 59 61 63 61 53 51 53 55 60 59 60 57 64 48 43 33 32 35 37 32 20 32 41 46 52 57 58
28 33 31 17 22 38 48 51 57 63 69 72 68 61 54 48 45 50 54 58 56 51 36 52 43 41 26 20 28 35 44 33 24 25 28 41 45 56
27 35 27 21 24 40 48 56 64 70 73 65 54 50 46 40 38 42 46 44 46 41 26 34 28 30 21 8 12 35 22 31 28 26 25 33 44 47
30 30 22 21 28 37 44 54 67 75 73 58 56 49 41 40 37 32 32 36 35 29 14 12 23 28 13 2 9 2 24 24 25 36 32 26 30 35
36 34 25 21 29 37 40 52 61 68 61 54 52 51 48 48 45 31 25 29 30 30 21 24 28 20 23 23 13 8 9 15 34 30 42 40 35 35
34 33 28 24 31 37 41 49 61 66 64 59 59 56 52 47 39 31 29 26 30 30 17 20 23 22 18 23 18 15 15 7 13 26 27 44 57 49
27 28 26 27 33 37 42 48 62 67 76 70 64 61 56 45 35 26 24 21 24 28 23 22 23 22 23 24 24 20 23 12 10 15 17 21 47 61
30 31 31 32 34 38 42 49 60 70 77 67 58 54 46 33 24 21 23 18 16 20 18 17 17 19 22 23 24 22 16 18 24 22 10 23 27 61
41 39 33 31 35 40 44 49 61 70 76 58 50 50 44 38 30 22 20 18 16 13 10 16 15 15 16 17 22 23 22 22 23 16 14 13 16 30
34 35 36 38 44 47 53 56 62 72 75 55 45 44 42 39 33 27 23 19 16 12 7 11 18 9 10 11 17 25 26 20 18 10 10 12 3 19
46 43 44 46 50 53 55 60 66 71 72 55 43 39 42 43 41 27 21 21 15 8 4 10 18 17 16 14 11 9 12 14 15 8 10 13 8 14
59 56 50 51 57 61 58 60 62 69 75 57 43 37 45 52 39 41 21 12 13 1 3 4 9 16 16 11 8 7 8 10 17 14 11 13 13 9
55 57 54 60 62 58 59 60 62 70 80 62 48 40 42 40 44 44 39 24 6 15 13 6 4 10 11 8 8 10 11 9 18 18 15 17 12 9
47 53 59 59 62 62 62 61 62 70 76 60 50 44 44 44 46 46 38 28 15 12 6 7 11 16 13 8 11 11 6 5 10 11 11 10 6 4
45 50 55 51 59 62 62 63 65 70 76 65 53 40 39 32 34 34 31 25 20 21 15 16 18 16 13 12 13 5 3 3 1 3 1 4 10 9
Wind_Direction_850mb
313 314 313 313 314 312 312 316 324 331 333 324 324 323 323 323 322 319 317 310 293 297 295 295 291 281 310 285 274 244 223 225 220 199 238 221 206 212
316 315 313 313 313 312 313 318 322 326 320 322 329 327 322 323 325 321 323 323 294 288 293 298 285 278 267 297 259 244 236 226 208 196 236 225 207 203
316 314 317 319 318 329 330 323 322 322 321 323 325 325 326 326 322 324 318 319 308 294 284 289 295 277 274 257 240 245 235 213 204 198 204 219 227 230
318 316 320 325 336 328 322 321 327 326 320 321 330 337 343 344 339 329 315 301 290 290 292 280 282 297 258 242 241 236 249 224 218 204 215 226 245 249
328 333 337 336 330 330 332 329 326 336 341 334 334 338 338 342 338 339 336 324 303 294 291 287 275 276 285 255 238 237 235 222 222 230 221 237 241 238
332 335 338 340 336 331 327 331 341 338 335 334 332 333 333 337 335 332 331 335 327 317 299 289 279 277 266 269 242 236 232 225 229 231 231 232 230 239
335 335 343 338 336 337 336 333 333 332 330 330 327 326 327 329 329 324 322 322 324 324 307 306 296 278 269 255 266 224 225 228 234 237 234 237 236 235
330 331 336 339 341 333 327 327 332 325 326 325 323 318 320 320 318 314 311 315 314 324 315 306 304 285 274 263 253 227 210 219 226 232 237 239 231 226
331 334 332 335 336 326 331 332 331 328 328 323 317 314 312 314 309 305 307 304 301 307 312 301 310 297 285 268 250 237 227 215 226 234 236 239 236 232
335 333 328 319 325 327 330 333 333 331 329 324 318 314 309 307 305 300 296 294 296 309 313 296 313 308 305 278 247 237 233 226 210 223 226 232 236 230
338 338 325 301 322 335 336 336 335 334 331 329 325 319 315 306 305 298 296 296 290 309 322 301 326 330 345 290 232 236 255 249 234 227 229 234 230 228
335 339 327 311 335 343 340 342 341 339 334 331 331 333 325 317 312 299 301 289 283 305 331 301 308 326 333 213 40 84 246 250 241 230 232 234 241 239
336 336 330 319 341 340 337 346 347 341 336 333 335 335 333 330 326 312 302 296 276 275 291 290 287 295 309 307 325 25 21 242 254 256 238 234 244 242
329 328 325 323 331 333 338 344 345 347 349 346 344 337 333 327 322 314 311 290 275 262 272 278 273 274 293 298 299 336 358 12 238 249 242 240 229 237
334 336 330 325 320 328 340 343 347 352 354 348 342 339 335 329 326 322 316 299 278 256 260 262 268 259 274 284 286 324 347 320 314 231 234 258 232 226
343 339 329 329 326 331 341 348 351 359 356 350 348 348 350 350 347 336 323 310 281 266 262 262 252 249 265 267 274 295 319 312 306 317 292 292 242 222
337 332 333 335 341 344 347 352 357 358 354 352 354 358 4 0 357 342 332 316 275 286 257 225 232 243 259 265 268 274 291 295 287 314 313 309 237 221
350 359 6 5 3 357 354 356 1 0 356 354 358 358 358 354 350 349 342 323 315 308 275 202 209 203 199 247 263 275 279 272 276 298 317 342 166 190
28 23 19 16 11 7 0 359 0 0 357 0 1 357 352 346 343 340 342 338 314 311 267 196 212 213 219 239 274 293 286 256 259 281 327 332 309 251
26 24 22 21 16 10 2 1 360 1 4 7 6 0 352 353 6 356 347 316 321 176 188 185 202 212 212 218 283 301 307 266 241 267 308 320 320 304
20 16 16 18 12 7 2 2 2 5 8 8 10 10 8 10 3 13 9 15 296 247 257 277 189 182 196 222 276 301 326 277 240 259 279 321 330 336
18 8 11 12 4 4 6 3 5 9 8 8 9 10 14 18 16 18 22 27 63 97 84 105 164 180 184 231 280 314 337 311 254 263 292 321 360 338
10 1 3 5 3 7 7 6 7 9 7 10 12 11 12 17 22 24 30 41 52 68 99 117 121 143 187 229 276 295 105 118 282 278 276 94 67 43